ANIK F2 1 28378U 04027A 21060.58287341 -.00000057 00000-0 00000-0 0 9991 2 28378 0.0223 249.7667 0000081 310.6598 57.9010 1.00271228 21883 ARIANE 5 R/B 1 28379U 04027B 21060.51451059 -.00000221 00000-0 59538-3 0 9990 2 28379 6.3778 230.5468 7299820 253.8597 24.9184 2.07936177126296